Regional Weather Roundup
Issued by NWS

Home | Current Version | Previous Version | Text Only | Print | Product List | Glossary Off
Versions: 1 2 3 4 5 6 7 8 9 10 11 12 13 14 15 16 17 18 19 20 21 22 23 24 25 26 27 28 29 30 31 32 33 34 35 36 37 38 39 40 41 42 43 44 45 46 47 48 49 50

750
ASUS43 KFSD 251402
RWRSD

WEATHER ROUNDUP FOR SOUTH DAKOTA
NATIONAL WEATHER SERVICE SIOUX FALLS SD
900 AM CDT THU MAY 25 2017

NOTE: "FAIR" INDICATES FEW OR NO CLOUDS BELOW 12,000 FEET WITH NO
SIGNIFICANT WEATHER AND/OR OBSTRUCTIONS TO VISIBILITY.


SDZ001>005-009-010-012>017-251500-
NORTHWEST AND NORTH CENTRAL SOUTH DAKOTA

CITY           SKY/WX    TMP DP  RH WIND       PRES   REMARKS
BUFFALO          N/A     53  41  63 W15       29.43R
FAITH            N/A     52  48  86 W20       29.45R
MOBRIDGE       MOSUNNY   58  46  64 VRB3      29.37S
$$

SDZ012>016-024>037-041>051-057-063-072>074-251500-
SOUTHWEST AND SOUTH CENTRAL SOUTH DAKOTA

CITY           SKY/WX    TMP DP  RH WIND       PRES   REMARKS
RAPID CTY ARPT MOSUNNY   58  39  49 NW14      29.52R
PIERRE         MOSUNNY   58  45  62 W21       29.37R
CUSTER         CLOUDY    53  33  46 CALM      29.58R
ELLSWORTH AFB  PTSUNNY   57  39  49 NW16      29.51R
PHILIP         CLOUDY    56  47  71 NW16G23   29.44R
PINE RIDGE     CLOUDY    58  52  80 SW5       29.53R
SPEARFISH      FAIR      54  32  43 W8        29.57R
WINNER         FAIR      62  49  62 SW13      29.44R
$$

SDZ004>011-016>023-039-040-251500-
NORTHEAST SOUTH DAKOTA

CITY           SKY/WX    TMP DP  RH WIND       PRES   REMARKS
ABERDEEN       SUNNY     60  44  55 S28G39    29.44R
WATERTOWN      SUNNY     56  46  69 S23G33    29.52F
BROOKINGS      MOSUNNY   56  47  71 S21G31    29.57F
SISSETON         N/A     56  49  77 S21G30    29.51F
$$

SDZ017-020-022-023-036>040-048>070-251500-
SOUTHEAST SOUTH DAKOTA

CITY           SKY/WX    TMP DP  RH WIND       PRES   REMARKS
SIOUX FALLS    PTSUNNY   60  49  66 S17G25    29.60S
HURON          SUNNY     60  46  59 S20G38    29.45F
MITCHELL       LGT RAIN  61  46  57 S26G32    29.49F
YANKTON          N/A     60  47  61 SE17G23   29.56F
$$

ABBREVIATIONS USED IN REMARKS
   TC - TEMPERATURE IN CELSIUS
  WCI - WIND CHILL INDEX
   HX - HEAT INDEX
  VSB - VISIBILITY





USA.gov is the U.S. government's official web portal to all federal, state and local government web resources and services.